IBE61G EGKK-DTNH

Flight info

Callsign IBE61G
Flight time N/A
Altitude 37000
Route SFD Y47 BENBO UL612 OGULO DCT OKASI DCT OKEKO DCT MOU DCT MADIV DCT MOKIP DCT TUFTA DCT KOGAS DCT MEDAM DCT NITAM DCT MOGBO DCT ENOBA DCT OLETI DCT EVROG DCT PODOX DCT VELAD DCT ABKON DCT PININ DCT TUNEX UM738 DIDON G727 ATLEL ATLEL1W
Aircraft A320/M-SDE3FGHIRWY/LB1

Departure

Time N/A
Airport London Gatwick Airport (EGKK)

Arrival

Time 2026-05-04 21:06
Airport Enfidha - Hammamet International Airport (DTNH)
Time Latitude Longitude Altitude Speed Heading
2026-05-04 19:43 44.34525 8.24729 37107 ft 457 kts 142°
2026-05-04 19:44 44.32192 8.27752 37109 ft 457 kts 142°
2026-05-04 19:44 44.27575 8.33862 37099 ft 458 kts 140°
2026-05-04 19:45 44.23152 8.40299 37077 ft 460 kts 138°
2026-05-04 19:45 44.18769 8.46836 37073 ft 461 kts 139°
2026-05-04 19:46 44.14340 8.53292 37076 ft 460 kts 139°
2026-05-04 19:46 44.09866 8.59691 37074 ft 461 kts 140°
2026-05-04 19:47 44.05416 8.66048 37060 ft 462 kts 140°
2026-05-04 19:47 44.00944 8.72467 37044 ft 462 kts 140°
2026-05-04 19:48 43.96468 8.78884 37046 ft 463 kts 140°
2026-05-04 19:48 43.91973 8.85288 37054 ft 463 kts 140°
2026-05-04 19:49 43.87467 8.91681 37037 ft 464 kts 140°
2026-05-04 19:49 43.82957 8.98074 37045 ft 464 kts 140°
2026-05-04 19:50 43.78457 9.04485 37050 ft 465 kts 139°
2026-05-04 19:50 43.74009 9.11005 37039 ft 466 kts 139°
2026-05-04 19:51 43.69575 9.17568 37037 ft 467 kts 139°
2026-05-04 19:51 43.65114 9.24105 37039 ft 468 kts 139°
2026-05-04 19:52 43.60631 9.30621 37045 ft 469 kts 139°
2026-05-04 19:52 43.56138 9.37146 37049 ft 469 kts 139°
2026-05-04 19:53 43.51666 9.43626 37060 ft 470 kts 139°
2026-05-04 19:53 43.47152 9.50144 37041 ft 470 kts 139°
2026-05-04 19:54 43.42624 9.56671 37035 ft 472 kts 139°
2026-05-04 19:54 43.38076 9.63210 37044 ft 473 kts 139°
2026-05-04 19:55 43.33520 9.69745 37056 ft 474 kts 139°
2026-05-04 19:55 43.28960 9.76272 37056 ft 474 kts 139°
2026-05-04 19:56 43.24107 9.82271 37054 ft 464 kts 152°
2026-05-04 19:56 43.18593 9.86738 37046 ft 460 kts 156°
2026-05-04 19:57 43.13037 9.91138 37050 ft 462 kts 156°
2026-05-04 19:57 43.07475 9.95551 37056 ft 462 kts 156°
2026-05-04 19:58 43.01938 9.99930 37071 ft 462 kts 156°
2026-05-04 19:58 42.96363 10.04320 37056 ft 462 kts 156°
2026-05-04 19:59 42.90783 10.08705 37067 ft 463 kts 156°
2026-05-04 19:59 42.85198 10.13097 37075 ft 463 kts 156°
2026-05-04 20:00 42.79623 10.17477 37074 ft 462 kts 156°
2026-05-04 20:00 42.74044 10.21835 37055 ft 462 kts 156°
2026-05-04 20:01 42.68450 10.26190 37056 ft 464 kts 156°
2026-05-04 20:01 42.62842 10.30555 37078 ft 465 kts 156°
2026-05-04 20:02 42.57224 10.34920 37082 ft 465 kts 156°
2026-05-04 20:02 42.51611 10.39268 37070 ft 465 kts 156°
2026-05-04 20:03 42.45981 10.43621 37090 ft 465 kts 156°
2026-05-04 20:03 42.40357 10.47955 37094 ft 465 kts 156°
2026-05-04 20:04 42.34733 10.52296 37097 ft 465 kts 156°
2026-05-04 20:04 42.29104 10.56623 37099 ft 465 kts 156°
2026-05-04 20:05 42.23508 10.61042 37094 ft 467 kts 154°
2026-05-04 20:05 42.18019 10.65650 37095 ft 468 kts 153°
2026-05-04 20:06 42.12503 10.70305 37095 ft 468 kts 153°
2026-05-04 20:06 42.06801 10.74527 37083 ft 460 kts 165°
2026-05-04 20:07 42.00680 10.76391 37081 ft 446 kts 182°
2026-05-04 20:07 41.94509 10.76556 37080 ft 444 kts 185°
2026-05-04 20:08 41.88363 10.76690 37095 ft 448 kts 185°
2026-05-04 20:08 41.82070 10.76821 37101 ft 455 kts 185°
2026-05-04 20:09 41.75731 10.76957 37097 ft 456 kts 185°
2026-05-04 20:09 41.69383 10.77091 37098 ft 456 kts 185°
2026-05-04 20:10 41.63036 10.77218 37097 ft 455 kts 185°
2026-05-04 20:10 41.56694 10.77339 37096 ft 456 kts 185°
2026-05-04 20:11 41.50349 10.77461 37100 ft 456 kts 185°
2026-05-04 20:11 41.45076 10.77570 37091 ft 456 kts 185°
2026-05-04 20:12 41.38735 10.77703 37089 ft 456 kts 185°
2026-05-04 20:12 41.31321 10.77855 37114 ft 454 kts 185°
2026-05-04 20:13 41.26075 10.77958 37106 ft 452 kts 184°
2026-05-04 20:13 41.19810 10.78073 37113 ft 450 kts 185°
2026-05-04 20:14 41.13561 10.78195 37116 ft 449 kts 185°
2026-05-04 20:14 41.07310 10.78320 37114 ft 449 kts 185°
2026-05-04 20:15 41.01068 10.78507 37106 ft 451 kts 179°
2026-05-04 20:15 40.94826 10.79744 37105 ft 453 kts 176°
2026-05-04 20:16 40.88588 10.81023 37108 ft 453 kts 176°
2026-05-04 20:16 40.82365 10.82315 37096 ft 453 kts 176°
2026-05-04 20:17 40.76186 10.83590 37094 ft 452 kts 177°
2026-05-04 20:17 40.69964 10.84866 37095 ft 452 kts 176°
2026-05-04 20:18 40.63736 10.86138 37093 ft 453 kts 177°
2026-05-04 20:18 40.57499 10.87411 37091 ft 453 kts 177°
2026-05-04 20:19 40.51258 10.88697 37099 ft 453 kts 176°
2026-05-04 20:19 40.45062 10.89972 37103 ft 453 kts 177°
2026-05-04 20:20 40.38788 10.91244 37090 ft 453 kts 177°
2026-05-04 20:20 40.32560 10.92496 37095 ft 452 kts 177°
2026-05-04 20:21 40.26335 10.93755 37101 ft 452 kts 176°
2026-05-04 20:21 40.17039 10.95640 37103 ft 452 kts 177°
2026-05-04 20:22 40.10822 10.96894 37102 ft 452 kts 177°
2026-05-04 20:22 40.04606 10.98140 37103 ft 452 kts 177°
2026-05-04 20:23 39.98382 10.99386 37104 ft 452 kts 177°
2026-05-04 20:23 39.92168 11.00636 37093 ft 452 kts 177°
2026-05-04 20:24 39.85953 11.01886 37113 ft 452 kts 177°
2026-05-04 20:24 39.79742 11.03125 37129 ft 451 kts 177°
2026-05-04 20:25 39.73531 11.04360 37120 ft 451 kts 177°
2026-05-04 20:25 39.67288 11.05609 37113 ft 451 kts 177°
2026-05-04 20:26 39.61112 11.06845 37115 ft 451 kts 177°
2026-05-04 20:26 39.54914 11.08075 37116 ft 450 kts 177°
2026-05-04 20:27 39.48720 11.09306 37100 ft 450 kts 177°
2026-05-04 20:27 39.42518 11.10533 37106 ft 451 kts 177°
2026-05-04 20:28 39.36315 11.11747 37107 ft 450 kts 177°
2026-05-04 20:28 39.30109 11.12955 37112 ft 451 kts 177°
2026-05-04 20:29 39.23907 11.14178 37104 ft 451 kts 177°
2026-05-04 20:29 39.17704 11.15409 37113 ft 451 kts 177°
2026-05-04 20:30 39.11502 11.16622 37116 ft 451 kts 178°
2026-05-04 20:30 39.05296 11.17823 37120 ft 451 kts 178°
2026-05-04 20:31 38.99090 11.19031 37103 ft 451 kts 178°
2026-05-04 20:31 38.92880 11.20248 37106 ft 451 kts 178°
2026-05-04 20:32 38.86680 11.21461 37108 ft 448 kts 178°
2026-05-04 20:32 38.83641 11.22056 37109 ft 436 kts 178°
2026-05-04 20:32 38.80665 11.22638 37102 ft 430 kts 178°
2026-05-04 20:33 38.74770 11.23781 37108 ft 427 kts 178°
2026-05-04 20:33 38.68892 11.24901 37111 ft 427 kts 178°
2026-05-04 20:34 38.63013 11.26036 37107 ft 427 kts 178°
2026-05-04 20:34 38.57137 11.27184 37081 ft 427 kts 178°
2026-05-04 20:35 38.51260 11.28319 37089 ft 427 kts 179°
2026-05-04 20:35 38.45377 11.29444 37099 ft 427 kts 178°
2026-05-04 20:36 38.39486 11.30571 37094 ft 428 kts 178°
2026-05-04 20:36 38.33629 11.31685 37074 ft 428 kts 178°
2026-05-04 20:37 38.27723 11.32810 37086 ft 429 kts 178°
2026-05-04 20:37 38.21825 11.33942 37092 ft 429 kts 178°
2026-05-04 20:38 38.15925 11.35070 37094 ft 429 kts 178°
2026-05-04 20:38 38.10025 11.36203 37092 ft 429 kts 178°
2026-05-04 20:39 38.04127 11.37327 37092 ft 429 kts 178°
2026-05-04 20:39 37.98221 11.38442 37097 ft 429 kts 178°
2026-05-04 20:40 37.92340 11.38931 37099 ft 417 kts 192°
2026-05-04 20:40 37.86736 11.37568 37099 ft 408 kts 200°
2026-05-04 20:41 37.81200 11.35905 37101 ft 408 kts 200°
2026-05-04 20:41 37.75695 11.34275 37098 ft 409 kts 200°
2026-05-04 20:42 37.70157 11.32638 37093 ft 408 kts 200°
2026-05-04 20:42 37.64590 11.30987 37075 ft 409 kts 200°
2026-05-04 20:43 37.59052 11.29350 37098 ft 408 kts 200°
2026-05-04 20:43 37.53548 11.27714 36710 ft 416 kts 200°
2026-05-04 20:44 37.50656 11.26845 35907 ft 425 kts 200°
2026-05-04 20:44 37.47804 11.25994 35099 ft 429 kts 199°
2026-05-04 20:44 37.44884 11.25127 34253 ft 433 kts 199°
2026-05-04 20:44 37.41935 11.24258 33358 ft 435 kts 199°
2026-05-04 20:45 37.38974 11.23386 32360 ft 439 kts 198°
2026-05-04 20:45 37.35980 11.22503 31323 ft 445 kts 198°
2026-05-04 20:45 37.32976 11.21623 30769 ft 441 kts 198°
2026-05-04 20:45 37.29996 11.20751 30092 ft 438 kts 197°
2026-05-04 20:46 37.27030 11.19883 29381 ft 434 kts 197°
2026-05-04 20:46 37.24102 11.19026 28742 ft 430 kts 197°
2026-05-04 20:46 37.21200 11.18173 28104 ft 426 kts 197°
2026-05-04 20:46 37.18326 11.17325 27472 ft 423 kts 197°
2026-05-04 20:47 37.15467 11.16483 26861 ft 420 kts 197°
2026-05-04 20:47 37.12628 11.15649 26243 ft 417 kts 197°
2026-05-04 20:47 37.09804 11.14821 25634 ft 414 kts 197°
2026-05-04 20:47 37.07041 11.14011 25045 ft 411 kts 197°
2026-05-04 20:48 37.04263 11.13199 24459 ft 408 kts 197°
2026-05-04 20:48 37.02399 11.12655 24076 ft 406 kts 196°
2026-05-04 20:48 36.99653 11.11853 23485 ft 403 kts 196°
2026-05-04 20:48 36.96052 11.10800 22760 ft 399 kts 196°
2026-05-04 20:49 36.94228 11.10267 22400 ft 397 kts 197°
2026-05-04 20:49 36.91546 11.09482 21913 ft 395 kts 197°
2026-05-04 20:49 36.88878 11.08700 21394 ft 393 kts 197°
2026-05-04 20:49 36.86232 11.07910 20852 ft 389 kts 197°
2026-05-04 20:50 36.83611 11.07111 20311 ft 387 kts 197°
2026-05-04 20:50 36.81003 11.06306 19758 ft 384 kts 197°
2026-05-04 20:50 36.78413 11.05503 19197 ft 383 kts 197°
2026-05-04 20:50 36.75832 11.04704 18633 ft 382 kts 197°
2026-05-04 20:51 36.73252 11.03908 18003 ft 382 kts 197°
2026-05-04 20:51 36.70677 11.03117 17406 ft 380 kts 197°
2026-05-04 20:51 36.68117 11.02337 16824 ft 378 kts 197°
2026-05-04 20:51 36.65568 11.01570 16241 ft 376 kts 197°
2026-05-04 20:52 36.63022 11.00806 15664 ft 375 kts 196°
2026-05-04 20:52 36.60489 11.00047 15092 ft 374 kts 196°
2026-05-04 20:52 36.57962 10.99292 14517 ft 373 kts 196°
2026-05-04 20:52 36.55440 10.98538 13928 ft 372 kts 196°
2026-05-04 20:53 36.52924 10.97785 13301 ft 370 kts 196°
2026-05-04 20:53 36.50436 10.97041 12719 ft 367 kts 196°
2026-05-04 20:53 36.47952 10.96300 12116 ft 365 kts 196°
2026-05-04 20:53 36.45495 10.95566 11547 ft 361 kts 196°
2026-05-04 20:54 36.43055 10.94836 10935 ft 359 kts 195°
2026-05-04 20:54 36.40671 10.94124 10513 ft 351 kts 195°
2026-05-04 20:54 36.38350 10.93436 10392 ft 335 kts 197°
2026-05-04 20:54 36.36130 10.92780 10269 ft 321 kts 197°
2026-05-04 20:55 36.34048 10.91998 10150 ft 305 kts 208°
2026-05-04 20:55 36.32327 10.90601 9977 ft 291 kts 224°
2026-05-04 20:55 36.31043 10.88701 9512 ft 289 kts 238°
2026-05-04 20:55 36.29937 10.86590 9130 ft 286 kts 239°
2026-05-04 20:56 36.28884 10.84559 8767 ft 283 kts 239°
2026-05-04 20:56 36.27826 10.82512 8352 ft 282 kts 238°
2026-05-04 20:56 36.26770 10.80471 7936 ft 280 kts 238°
2026-05-04 20:56 36.25701 10.78415 7475 ft 281 kts 237°
2026-05-04 20:57 36.24643 10.76382 7062 ft 280 kts 237°
2026-05-04 20:57 36.23586 10.74358 6647 ft 279 kts 237°
2026-05-04 20:57 36.22533 10.72347 6234 ft 278 kts 237°
2026-05-04 20:57 36.21484 10.70346 5794 ft 277 kts 237°
2026-05-04 20:58 36.20453 10.68388 5457 ft 272 kts 237°
2026-05-04 20:58 36.19410 10.66415 4934 ft 276 kts 236°
2026-05-04 20:58 36.18360 10.64418 4410 ft 277 kts 236°
2026-05-04 20:58 36.17316 10.62402 3891 ft 278 kts 236°
2026-05-04 20:59 36.16243 10.60412 3380 ft 277 kts 226°
2026-05-04 20:59 36.14702 10.59050 2862 ft 272 kts 199°
2026-05-04 20:59 36.12867 10.58778 2543 ft 263 kts 172°
2026-05-04 20:59 36.11249 10.59608 2502 ft 245 kts 142°
2026-05-04 21:00 36.10213 10.61178 2500 ft 229 kts 124°
2026-05-04 21:00 36.09450 10.62835 2503 ft 215 kts 122°
2026-05-04 21:00 36.08759 10.64413 2455 ft 204 kts 122°
2026-05-04 21:00 36.08064 10.65904 2321 ft 195 kts 134°
2026-05-04 21:01 36.06958 10.66707 2197 ft 183 kts 172°
2026-05-04 21:01 36.05746 10.66416 2099 ft 181 kts 211°
2026-05-04 21:01 36.04992 10.65192 2028 ft 185 kts 246°
2026-05-04 21:01 36.04990 10.63592 1999 ft 196 kts 285°
2026-05-04 21:02 36.05670 10.62160 2032 ft 187 kts 301°
2026-05-04 21:02 36.06589 10.61114 2032 ft 173 kts 327°
2026-05-04 21:02 36.07499 10.60278 2010 ft 156 kts 304°
2026-05-04 21:02 36.07689 10.59099 1995 ft 137 kts 246°
2026-05-04 21:03 36.07475 10.57956 1882 ft 142 kts 263°
2026-05-04 21:03 36.07520 10.56744 1769 ft 139 kts 261°
2026-05-04 21:03 36.07520 10.55563 1602 ft 136 kts 263°
2026-05-04 21:03 36.07523 10.54400 1424 ft 135 kts 263°
2026-05-04 21:04 36.07527 10.53236 1255 ft 136 kts 263°
2026-05-04 21:04 36.07532 10.52061 1065 ft 138 kts 263°
2026-05-04 21:04 36.07538 10.50878 893 ft 136 kts 265°
2026-05-04 21:04 36.07544 10.49711 706 ft 137 kts 265°
2026-05-04 21:05 36.07549 10.48524 521 ft 139 kts 264°
2026-05-04 21:05 36.07570 10.47314 323 ft 143 kts 264°
2026-05-04 21:05 36.07564 10.46107 144 ft 139 kts 266°
2026-05-04 21:05 36.07573 10.44921 23 ft 132 kts 266°
2026-05-04 21:06 36.07567 10.43944 17 ft 90 kts 270°
2026-05-04 21:06 36.07577 10.43356 19 ft 56 kts 271°
2026-05-04 21:06 36.07621 10.43006 20 ft 31 kts 292°
2026-05-04 21:06 36.07687 10.42881 20 ft 13 kts 331°
2026-05-04 21:07 36.07747 10.42920 20 ft 10 kts 75°
2026-05-04 21:07 36.07769 10.43001 20 ft 10 kts 55°
2026-05-04 21:07 36.07789 10.43042 20 ft 0 kts 65°